User: anonymous   Login
Location: Columbia
(38.9520°N, 92.3340°W)
Time: 17:53:06
(UTC-06:00)
Language:

SJ-11-01 - Orbit

View from above orbital plane
View from above orbital plane
View from above satellite
View from above satellite

Ground track
Ground track

The orbit data is extracted from the following two-line orbital elements,

1 36088U 09061A   14332.78314912  .00000943  00000-0  20479-3 0  6267
2 36088 098.0157 015.9511 0009833 289.5642 070.4487 14.60249976268754
Epoch (UTC): 28 November 2014 18:47:44
Eccentricity: 0.0009833
inclination: 98.0157°
perigee height: 685 km
apogee height: 699 km
right ascension of ascending node: 15.9511°
argument of perigee: 289.5642°
revolutions per day: 14.60249976
mean anomaly at epoch: 70.4487°
orbit number at epoch: 26875

The dashed part of the orbit path shows where the satellite is in the earth's shadow,  

DLR